Needles, CA

1:55 PM PDT on June 22, 2017 (GMT -0700)
Needles

Weather History for KEED - December, 2012

Change the Weather History Date:

Friday, December 7, 2012

  Actual Average Record
Temperature  
Mean Temperature 63 °F 54 °F  
Max Temperature 75 °F 64 °F 82 °F (1934)
Min Temperature 51 °F 43 °F 26 °F (1978)
Degree Days  
Heating Degree Days 2    
Cooling Degree Days 0    
Growing Degree Days 13 (Base 50)    
Moisture  
Dew Point 32 °F    
Average Humidity 36    
Maximum Humidity 63    
Minimum Humidity 17    
Precipitation  
Precipitation 0.00 in 0.01 in 0.88 in (1918)
Month to date precipitation 0.08  
Year to date precipitation 4.19  
Sea Level Pressure  
Sea Level Pressure 29.88 in    
Wind  
Wind Speed 6 mph (NNW)    
Max Wind Speed 22 mph    
Max Gust Speed 29 mph    
Visibility 10 miles    
Events      
T = Trace of Precipitation, MM = Missing Value Source: NWS Daily Summary

Daily Weather History Graph

Daily Weather History Graph

Search for Another Location

Airport or City:

Trip Planner

Search our weather history database for the weather conditions in past years. The results will help you decide how hot, cold, wet, or windy it might be!

Date:

Astronomy

Dec. 07, 2012 Rise Set
Actual Time 6:33 AM PST 4:27 PM PST
Civil Twilight 6:05 AM PST 4:55 PM PST
Nautical Twilight 5:33 AM PST 5:26 PM PST
Astronomical Twilight 5:03 AM PST 5:57 PM PST
Moon 12:09 AM PST (12/7) 12:14 PM PST (12/7)
Length of Visible Light 10h 49m
Length of Day
9h 54m
Last Quarter, 37% of the Moon is Illuminated
Dec 7
Last Quarter
Dec 13
New
Dec 19
First Quarter
Dec 28
Full
Jan 4
Last Quarter

Hourly Weather History & Observations

Time (PST) Temp. Dew Point Humidity Pressure Visibility Wind Dir Wind Speed Gust Speed Precip Events Conditions
12:56 AM 55.0 °F 39.0 °F 55% 29.84 in 10.0 mi Calm Calm - N/A   Clear
1:56 AM 55.0 °F 39.0 °F 55% 29.85 in 10.0 mi Calm Calm - N/A   Clear
2:56 AM 52.0 °F 37.9 °F 59% 29.85 in 10.0 mi WSW 3.5 mph - N/A   Clear
3:56 AM 52.0 °F 39.0 °F 61% 29.85 in 10.0 mi SW 4.6 mph - N/A   Clear
4:56 AM 51.1 °F 39.0 °F 63% 29.86 in 10.0 mi WSW 3.5 mph - N/A   Clear
5:56 AM 51.1 °F 37.9 °F 61% 29.88 in 10.0 mi SW 8.1 mph - N/A   Clear
6:56 AM 51.1 °F 39.0 °F 63% 29.90 in 10.0 mi Calm Calm - N/A   Clear
7:56 AM 57.0 °F 39.0 °F 51% 29.92 in 10.0 mi Calm Calm - N/A   Clear
8:56 AM 60.1 °F 39.0 °F 46% 29.93 in 10.0 mi Calm Calm - N/A   Clear
9:56 AM 68.0 °F 39.0 °F 35% 29.93 in 10.0 mi NNE 10.4 mph - N/A   Clear
10:56 AM 71.1 °F 37.9 °F 30% 29.91 in 10.0 mi North 9.2 mph - N/A   Clear
11:56 AM 73.9 °F 36.0 °F 25% 29.89 in 10.0 mi NNE 12.7 mph 18.4 mph N/A   Clear
12:56 PM 75.9 °F 28.0 °F 17% 29.86 in 10.0 mi NNE 21.9 mph 28.8 mph N/A   Mostly Cloudy
1:38 PM 75.2 °F 30.2 °F 19% 29.91 in 10.0 mi NNE 15.0 mph 23.0 mph N/A   Scattered Clouds
1:56 PM 75.9 °F 30.9 °F 19% 29.85 in 10.0 mi NNE 18.4 mph - N/A   Clear
2:56 PM 73.9 °F 28.0 °F 18% 29.85 in 10.0 mi NNE 20.7 mph - N/A   Clear
3:56 PM 72.0 °F 27.0 °F 19% 29.86 in 10.0 mi NNE 11.5 mph - N/A   Clear
4:56 PM 68.0 °F 27.0 °F 21% 29.87 in 10.0 mi NNW 6.9 mph - N/A   Clear
5:56 PM 64.9 °F 27.0 °F 24% 29.88 in 10.0 mi NNW 9.2 mph - N/A   Clear
6:56 PM 64.0 °F 25.0 °F 23% 29.90 in 10.0 mi NW 6.9 mph - N/A   Clear
7:56 PM 63.0 °F 24.1 °F 23% 29.90 in 10.0 mi WNW 9.2 mph - N/A   Clear
8:56 PM 62.1 °F 24.1 °F 23% 29.90 in 10.0 mi WNW 11.5 mph - N/A   Clear
9:56 PM 61.0 °F 25.0 °F 25% 29.89 in 10.0 mi NW 8.1 mph - N/A   Clear
10:56 PM 57.0 °F 25.0 °F 29% 29.89 in 10.0 mi WNW 6.9 mph - N/A   Clear
11:56 PM 53.1 °F 24.1 °F 32% 29.88 in 10.0 mi WNW 6.9 mph - N/A   Clear